[TLELIST] Archives

 

[TLELIST] Current TLEs

May 11th 2024 PDT

HST 1 20580U 90037B 24131.69899016 .00009181 00000-0 44017-3 0 9991 2 20580 28.4681 236.2074 0002356 1.0080 359.0517 15.17176780671338 ISS (ZARYA) 1 25544U 98067A 24132.36613887 .00017080 00000-0 29475-3 0 9990 2 25544 51.6381 137.9361 0003535 157.3552 342.5950 15.51115688452831 CXO 1 25867U 99040B 24133.48325748 .00000624 00000-0 00000+0 0 9995 2 25867 40.3932 157.1734 8928898 294.0177 359.6485 0.37809329 25582 ...Continue Reading

[TLELIST] Current TLEs

May 10th 2024 PDT

HST 1 20580U 90037B 24130.71227376 .00007618 00000-0 36385-3 0 9999 2 20580 28.4684 242.8122 0002264 349.8512 10.2035 15.17160579671182 ISS (ZARYA) 1 25544U 98067A 24131.34361111 .00016150 00000-0 27956-3 0 9996 2 25544 51.6380 143.0116 0003517 153.6886 32.7265 15.51076013452672 CXO 1 25867U 99040B 24133.48325748 .00000624 00000-0 00000+0 0 9995 2 25867 40.3932 157.1734 8928898 294.0177 359.6485 0.37809329 25582 ...Continue Reading

[TLELIST] Current TLEs

May 10th 2024 PDT

HST 1 20580U 90037B 24130.71227376 .00007618 00000-0 36385-3 0 9999 2 20580 28.4684 242.8122 0002264 349.8512 10.2035 15.17160579671182 ISS (ZARYA) 1 25544U 98067A 24131.34361111 .00016150 00000-0 27956-3 0 9996 2 25544 51.6380 143.0116 0003517 153.6886 32.7265 15.51076013452672 CXO 1 25867U 99040B 24133.48325748 .00000624 00000-0 00000+0 0 9995 2 25867 40.3932 157.1734 8928898 294.0177 359.6485 0.37809329 25582 ...Continue Reading

[TLELIST] Current TLEs

May 9th 2024 PDT

HST 1 20580U 90037B 24129.65976583 .00007447 00000-0 35564-3 0 9999 2 20580 28.4687 249.8567 0002162 337.8803 22.1696 15.17146625671026 ISS (ZARYA) 1 25544U 98067A 24130.36689744 .00016024 00000-0 27777-3 0 9993 2 25544 51.6381 147.8590 0003466 150.4670 338.5502 15.51043222452521 CXO 1 25867U 99040B 24133.48260059 .00000624 00000-0 00000+0 0 9998 2 25867 40.3930 157.1735 8928908 294.0177 359.5589 0.37808239 25586 ...Continue Reading

[TLELIST] Current TLEs

May 8th 2024 PDT

HST 1 20580U 90037B 24128.73881392 .00007122 00000-0 33982-3 0 9992 2 20580 28.4686 256.0211 0002089 327.7152 32.3312 15.17133605670889 ISS (ZARYA) 1 25544U 98067A 24129.34837963 .00014166 00000-0 24687-3 0 9999 2 25544 51.6381 152.9120 0003336 147.3897 50.7616 15.51003210452363 CXO 1 25867U 99040B 24130.83982923 .00000587 00000-0 00000-0 0 9994 2 25867 40.3330 157.4669 8931258 293.7855 359.8450 0.37811134 14429 ...Continue Reading

[TLELIST] Current TLEs

May 7th 2024 PDT

HST 1 20580U 90037B 24128.08098645 .00007198 00000-0 34363-3 0 9998 2 20580 28.4684 260.4235 0002014 320.4242 39.6203 15.17125405671047 ISS (ZARYA) 1 25544U 98067A 24128.36829091 .00016537 00000-0 28705-3 0 9992 2 25544 51.6388 157.7777 0003617 143.3446 338.7927 15.50977738452211 CXO 1 25867U 99040B 24128.19632862 .00000638 00000-0 00000+0 0 9990 2 25867 40.2552 157.8199 8932055 293.5091 0.0392 0.37812619 25568 ...Continue Reading

[TLELIST] Current TLEs

May 6th 2024 PDT

HST 1 20580U 90037B 24126.83110402 .00006251 00000-0 29735-3 0 9991 2 20580 28.4684 268.7897 0001997 303.4036 56.6365 15.17108773670599 ISS (ZARYA) 1 25544U 98067A 24127.20033841 .00016348 00000-0 28427-3 0 9995 2 25544 51.6386 163.5747 0003554 138.0407 298.5821 15.50938879452038 CXO 1 25867U 99040B 24128.19632862 .00000638 00000-0 00000+0 0 9990 2 25867 40.2552 157.8199 8932055 293.5091 0.0392 0.37812619 25568 ...Continue Reading

[TLELIST] Current TLEs

May 5th 2024 PDT

HST 1 20580U 90037B 24125.77856187 .00006144 00000-0 29222-3 0 9992 2 20580 28.4686 275.8356 0001991 289.4637 70.5740 15.17097440670695 ISS (ZARYA) 1 25544U 98067A 24126.38175926 .00014285 00000-0 24961-3 0 9991 2 25544 51.6391 167.6337 0003679 139.6845 43.5286 15.50919423451907 CXO 1 25867U 99040B 24128.19632862 .00000638 00000-0 00000+0 0 9990 2 25867 40.2552 157.8199 8932055 293.5091 0.0392 0.37812619 25568 ...Continue Reading

[TLELIST] Current TLEs

May 4th 2024 PDT

HST 1 20580U 90037B 24124.72601271 .00006167 00000-0 29342-3 0 9996 2 20580 28.4686 282.8812 0001962 277.7405 82.2964 15.17084748670270 ISS (ZARYA) 1 25544U 98067A 24125.41464120 .00014744 00000-0 25759-3 0 9997 2 25544 51.6384 172.4305 0003503 135.2416 44.7378 15.50894915451756 CXO 1 25867U 99040B 24125.55221082 .00000817 00000-0 00000+0 0 9994 2 25867 40.1781 158.1648 8930883 293.2519 0.0839 0.37810193 25553 ...Continue Reading

[TLELIST] Current TLEs

May 3rd 2024 PDT

HST 1 20580U 90037B 24123.60766960 .00006050 00000-0 28782-3 0 9997 2 20580 28.4683 290.3662 0001948 262.5705 97.4666 15.17070933670103 ISS (ZARYA) 1 25544U 98067A 24124.37025281 .00022572 00000-0 39038-3 0 9995 2 25544 51.6372 177.6144 0003919 133.4619 331.6621 15.50851710451594 CXO 1 25867U 99040B 24125.55221082 .00000817 00000-0 00000+0 0 9994 2 25867 40.1781 158.1648 8930883 293.2519 0.0839 0.37810193 25553 ...Continue Reading
  • This mailing list is a public mailing list - anyone may join or leave, at any time.
  • This mailing list is announce-only.

International Space Station (ISS) / Hubble Space Telescope (HST) / Chandra X-Ray Observatory Orbital Data via EMAIL

Privacy Policy:

Private list